Overview Statistics Trail Chart Weather Telemetry Raw packets
 

This is the latest recevied weather packets stored in our database for station/object IZ4MEH-10. If no packets are shown the sender has not sent any weather packets the latest 10 day(s).

<< 2 3 4 5 6 7 8 >>
Time Temp. Humidity Pressure Rain* Wind** Luminosity Snow
1788268951 34.44° C 42% 1013.9 hPa - - - -
1788267133 34.44° C 44% 1014.1 hPa - - - -
1788263531 33.33° C 47% 1014.5 hPa - - - -
1788261723 33.89° C 45% 1014.8 hPa - - - -
1788258121 35° C 41% 1015.2 hPa - - - -
1788250917 36.67° C 37% 1015.5 hPa - - - -
1788247316 35° C 40% 1015.2 hPa - - - -
1788243714 33.89° C 45% 1014.8 hPa - - - -
1788241913 31.67° C 50% 1014.6 hPa - - - -
1788240112 27.78° C 60% 1014.5 hPa - - - -
1788238312 25.56° C 67% 1014 hPa - - - -
1788236511 25.56° C 62% 1013.9 hPa - - - -
1788234710 25.56° C 62% 1013.6 hPa - - - -
1788231108 26.67° C 58% 1013.4 hPa - - - -
1788229307 26.67° C 56% 1013.2 hPa - - - -
1788227506 27.22° C 55% 1012.9 hPa - - - -
1788211299 29.44° C 49% 1011.2 hPa - - - -
1788193290 36.11° C 32% 1009.6 hPa - - - -
1788186087 36.67° C 30% 1009.9 hPa - - - -
1788177095 37.78° C 30% 1011.3 hPa - - - -
1788175282 37.78° C 30% 1011.5 hPa - - - -
1788173481 42.22° C 25% 1011.6 hPa - - - -
1788171680 46.67° C 22% 1011.9 hPa - - - -
1788166278 45° C 25% 1012.6 hPa - - - -
1788150070 23.33° C 64% 1011.7 hPa - - - -

* Rain since midnight (hover to see other rain measurements)
** Current wind speed in m/s (hover to see current wind gust speed)